Погода в Разумном

Россия / Белгородская область     50°32′01″N   36°41′22″E
темп.,
°C
ветер,
м/с
пор.,
м/с
влажн.,
%
обл.,
%
осадки,
мм/ч
давл.,
гПа
погр.,
м
11 апреля, вс
вс1100:00+6ссв33610 0.0 102740
03:00+4ссв33640 0.0 102740
06:00+3ссв36653 0.0 102893
09:00+8ссв594914 0.0 1029624
12:00+12св673779 0.0 10281194
15:00+13св6834100 0.0 10271256
18:00+12св594385 0.0 1026612
21:00+9св51251100 0.0 1027405
12 апреля, пн
пн1200:00+7св51259100 0.0 1026418
03:00+7св51172100 0.0 1025398
06:00+7св51187100 0.0 1025345
09:00+10всв6984100 0.0 1024403
12:00+17в686087 0.0 1022744
15:00+21в694071 0.0 10211304
18:00+20вюв51044100 0.0 1020301
21:00+15юв385965 0.0 1022148
13 апреля, вт
вт1300:00+13вюв396920 0.0 1022155
03:00+11вюв367664 0.0 1022101
06:00+10в378589 0.0 1023135
09:00+14вюв6126099 0.0 1022773
12:00+18юв694487 0.0 10211423
15:00+20юв6113789 0.0 10202304
18:00+15ю5957100 0.0 1021453
21:00+14юв5126642 0.0 1022696
14 апреля, ср
ср1400:00+12юв237670 0.0 102172
03:00+11вюв3678100 0.0 1020198
06:00+10вюв358555 0.0 1020106
09:00+14в456666 0.0 1018428
12:00+15ю4561100 0.1 1018695
15:00+17ю5751100 0.3 10171466
18:00+16юз3457100 0.0 1016269
21:00+12з238298 0.3 101786
15 апреля, чт
чт1500:00+11с118295 0.0 101613
03:00+11св118397 0.0 101611
06:00+11вюв1176100 0.0 101511
09:00+14юв2453100 0.0 1015344
12:00+17юв2344100 0.0 10141031
15:00+19в2438100 0.0 10132436
18:00+16юв2255100 0.0 101262
21:00+14всв2258100 0.3 101227